Regional Weather Roundup
Issued by NWS

Home | Current Version | Previous Version | Text Only | Print | Product List | Glossary On
Versions: 1 2 3 4 5 6 7 8 9 10 11 12 13 14 15 16 17 18 19 20 21 22 23 24 25 26 27 28 29 30 31 32 33 34 35 36 37 38 39 40 41 42 43 44 45 46 47 48 49 50
000
ASUS44 KFWD 171115
RWRTX
NORTH TEXAS HOURLY WEATHER ROUNDUP
NATIONAL WEATHER SERVICE FORT WORTH TX
500 AM CST TUE JAN 17 2017

NOTE: "FAIR" INDICATES FEW OR NO CLOUDS BELOW 12,000 FEET WITH NO
SIGNIFICANT WEATHER AND/OR OBSTRUCTIONS TO VISIBILITY.

TXZ118-119-171200-
DALLAS/FORT WORTH METROPLEX

CITY           SKY/WX    TMP DP  RH WIND       PRES   REMARKS
DFW AIRPORT    CLOUDY    46  38  73 N7        30.14R
DALLAS LOVE    MOCLDY    46  37  71 NW6       30.15R
FTW MEACHAM    CLOUDY    45  36  70 N6        30.14S
DAL-EXECUTIVE  MOCLDY    46  38  73 NW8       30.13S
FTW-ALLIANCE   CLOUDY    41  36  82 CALM      30.15R
FTW-NAS-JRB    CLOUDY    44  37  76 N5        30.16S
FTW-SPINKS     CLOUDY    44  37  76 N7        30.16S WCI  40
ARLINGTON      MOCLDY    46  36  68 N9        30.14S
GRAND PRAIRIE  PTCLDY    46  37  71 N7        30.16R
MESQUITE       MOCLDY    46  37  72 N8        30.15R
LANCASTER      CLOUDY    47  40  78 N5        30.15S
$$

TXZ091>094-102>105-117-120-121-131>134-171200-
NORTH CENTRAL TEXAS

CITY           SKY/WX    TMP DP  RH WIND       PRES   REMARKS
SHRMAN/DENISON MOCLDY    37  36  94 CALM      30.15S
GAINESVILLE    MOCLDY    36  34  90 CALM      30.15F
BOWIE          PTCLDY    37  36  99 CALM      30.14F
BRIDGEPORT     MOCLDY    39  37  91 N3        30.17S
DECATUR        PTCLDY    58  53  82 N5        30.14S
DENTON         MOCLDY    41  36  82 CALM      30.15S
MCKINNEY       CLOUDY    43  38  82 N6        30.13F WCI  39
BONHAM         CLOUDY    39  36  87 NW5       30.13F WCI  36
GREENVILLE     CLOUDY    45  37  76 N5        30.14R
ROCKWALL       MOCLDY    45  39  81 CALM      30.15R
TERRELL        CLOUDY    48  38  68 N9        30.13R
WAXAHACHIE     MOCLDY    46  39  76 N7        30.15S
CLEBURNE       PTCLDY    45  39  81 N12       30.15S WCI  39
GRANBURY       CLOUDY    46  39  76 N3        30.17S
$$

TXZ083>090-098>101-113>116-127>130-139>142-154-155-171200-
WESTERN NORTH TEXAS

CITY           SKY/WX    TMP DP  RH WIND       PRES   REMARKS
WICHITA FALLS  CLEAR     37  33  85 NW8       30.15R WCI  31
WF-KICKAPOO    CLEAR     38  34  86 NW3       30.17R
VERNON         CLEAR     34  30  86 W7        30.16F WCI  28
ABILENE        PTCLDY    37  35  92 N6        30.15F WCI  32
ABILENE-DYESS  MOCLDY    37  32  80 NW6       30.14F WCI  33
GRAHAM         CLOUDY    37  37 100 CALM      30.15R
BRECKENRIDGE   MOCLDY    42  37  83 N5        30.15F WCI  39
CISCO          CLOUDY    41  37  87 N6        30.14S WCI  37
MINERAL WELLS  CLOUDY    41  35  79 N3        30.14R
STEPHENVILLE   CLOUDY    44  37  77 N9        30.14F WCI  39
COMANCHE       CLOUDY    43  40  88 N6        30.14S WCI  40
BROWNWOOD      CLOUDY    45  37  76 N5        30.13S
COLEMAN        MOCLDY    43  37  81 N6        30.13R WCI  39
$$

TXZ143>147-156>162-174-175-171200-
CENTRAL TEXAS

CITY           SKY/WX    TMP DP  RH WIND       PRES   REMARKS
WACO           CLOUDY    52  45  77 N10G20    30.10S
WACO-MCGREGOR  CLOUDY    52  44  74 N9        30.11S
HILLSBORO      CLOUDY    49  42  78 N12       30.13R
CORSICANA      CLOUDY    52  47  83 N9        30.11F
MEXIA          CLOUDY    51  47  85 N9        30.09S
HEARNE         LGT RAIN  55  54  97 N8        30.08F
CAMERON        CLOUDY    56  54  95 N9        30.08S
TEMPLE         LGT RAIN  52  47  83 N12       30.09R
KILLEEN        CLOUDY    53  43  70 NE14      30.08S
KILLEEN-SKYLRK CLOUDY    54  44  69 N10       30.09F
GATESVILLE     MOCLDY    52  41  66 N6        30.13R
HAMILTON       MOCLDY    47  41  77 N7        30.13R
LAMPASAS       CLOUDY    52  43  72 NE12      30.08F
$$

TXZ095>097-106>112-122>126-135>138-148>153-164>167-171200-
EAST TEXAS

CITY           SKY/WX    TMP DP  RH WIND       PRES   REMARKS
PARIS          CLOUDY    43  36  75 NW9       30.12S WCI  37
SULPHUR SPRNGS CLOUDY    47  39  73 N9        30.14R
MOUNT PLEASANT CLOUDY    50  43  77 NW7       30.13R
GILMER         LGT RAIN  50  48  94 NW5       30.11R
MINEOLA        CLOUDY    50  45  81 NW6       30.13R
TYLER          LGT RAIN  51  48  89 NW8       30.11R
LONGVIEW       CLOUDY    53  51  93 N5        30.08F
MARSHALL       CLOUDY    51  47  87 N6        30.10F
ATHENS         CLOUDY    50  50 100 N8        30.09F
PALESTINE      CLOUDY    53  51  94 N8        30.10S
JACKSONVILLE   CLOUDY    52  51  97 N8        30.11R
HENDERSON      CLOUDY    52  51  95 N5        30.11R
CENTER         CLOUDY    57  56  96 N5        30.09S
NACOGDOCHES    CLOUDY    55  52  88 NE5       30.06R
LUFKIN         CLOUDY    57  53  86 N8        30.06R
$$

SUPPLEMENTAL OBSERVATIONS (CENTRAL)

CITY           SKY/WX    TMP DP  RH WIND       PRES   REMARKS
DENISON DAM      N/A     43  36  75 NW9         N/A  WCI  37
CADDO GRASSLND   N/A     37  34  87 N1          N/A
PAT MAYSE LAKE   N/A     39  37  93 NW3         N/A
GREENVILLE       N/A     43  36  75 N7          N/A  WCI  39
CEDAR HILL       N/A     46  37  71 N6G14       N/A
ATHENS           N/A     50  45  81 N6          N/A
LAKE LIMESTONE   N/A     54  50  87 N9          N/A
MCGREGOR         N/A     54  45  71 N7G15       N/A
TEMPLE           N/A     54  48  82 NE16G22     N/A
$$

SUPPLEMENTAL OBSERVATIONS (WEST)

CITY           SKY/WX    TMP DP  RH WIND       PRES   REMARKS
MILLERS CREEK    N/A     37  34  87 NW6         N/A  WCI  33
POSSUM KINGDOM   N/A     39  37  93 NW3         N/A
LBJ GRASSLAND    N/A     37  34  87 NW2         N/A
GRANBURY         N/A     45  37  76 VRB5        N/A
COMANCHE         N/A     43  39  87 N7          N/A  WCI  39
HAMBY            N/A     37  34  87 N2          N/A
IVIE RESERVOIR   N/A     45  36  70 NE5         N/A
COLORADO BEND    N/A     52  39  62 E9          N/A
$$

SUPPLEMENTAL OBSERVATIONS (EAST)

CITY           SKY/WX    TMP DP  RH WIND       PRES   REMARKS
CLARKSVILLE      N/A     45  37  76 NW8         N/A
TEXARKANA        N/A     50  48  93 W2          N/A
CADDO LAKE       N/A     52  48  87 N1          N/A
GILMER           N/A     52  48  87 N3          N/A
HENDERSON        N/A     52  48  87 N6          N/A
LUFKIN           N/A     57  54  88 MISG        N/A
N SABINE NF      N/A     55  54  94 MISG        N/A
S SABINE NF      N/A     55  54  94 N6          N/A
$$

SUPPLEMENTAL OBSERVATIONS ARE A COLLECTION OF AUTOMATED INSTRUMENTS
THAT ARE MAINTAINED BY A VARIETY OF FEDERAL AND STATE AGENCIES.
CERTAIN ELEMENTS...SUCH AS HUMIDITY VALUES AND SUSTAINED WIND
SPEEDS...MAY BE APPROXIMATED.





USA.gov is the U.S. government's official web portal to all federal, state and local government web resources and services.